{"data":{"norad_id":67185,"epoch":"2026-09-20T08:59:56.232960Z","epoch_age_seconds":89041,"freshness":"FRESH","line1":"1 67185U 25303Y   26263.37495640  .00011125  00000+0  41290-3 0  9995","line2":"2 67185  42.9995 290.8940 0000639 129.0259 231.0650 15.27602972 42515","mean_motion":15.27602972,"eccentricity":6.39e-5,"inclination_deg":42.9995,"raan_deg":290.894,"arg_perigee_deg":129.0259,"mean_anomaly_deg":231.065,"bstar":0.0004129,"rev_number":4251,"period_min":94.265331136054,"perigee_km":482.54188507339,"apogee_km":483.41873586566,"semimajor_km":6861.1173104695,"source":"CELESTRAK","updated_at":"2026-09-21T09:00:36.133074Z"}}